When you browse on this site, cookies collect data to enhance your experience and personalize the content and advertising you see.
Visit our Privacy Policy to learn more. By continuing to use the site, you agree to this use of cookies and data.
  • In Lithuania
  • List of Countries
  • For 7 days
  • Water Temperature
  • Weather Map
  • Weather Widgets
  • user-avatar
    Login

    Hourly Weather Bajdabo

    Today, 4 April, Saturday

    Time Temperature Precipitation Wind Pressure Humidity
    00:00 +28°C° 0 mm 5 mps 720 mmHg 72%
    01:00 +27°C° 0 mm 5 mps 720 mmHg 72%
    02:00 +27°C° 0 mm 5 mps 720 mmHg 73%
    03:00 +26°C° 0 mm 5 mps 719 mmHg 73%
    04:00 +26°C° 0 mm 5 mps 720 mmHg 75%
    05:00 +26°C° 0 mm 5 mps 721 mmHg 78%
    06:00 +26°C° 0 mm 5 mps 721 mmHg 80%
    07:00 +27°C° 0 mm 5 mps 721 mmHg 74%
    08:00 +28°C° 0 mm 6 mps 722 mmHg 68%
    09:00 +30°C° 0 mm 6 mps 722 mmHg 61%
    10:00 +32°C° 0 mm 6 mps 722 mmHg 54%
    11:00 +34°C° 0 mm 6 mps 722 mmHg 46%
    12:00 +35°C° 0 mm 5 mps 722 mmHg 39%
    13:00 +36°C° 0 mm 5 mps 721 mmHg 37%
    14:00 +36°C° 0 mm 5 mps 720 mmHg 34%
    15:00 +37°C° 0 mm 5 mps 719 mmHg 32%
    16:00 +36°C° 0 mm 5 mps 720 mmHg 34%
    17:00 +35°C° 0 mm 5 mps 720 mmHg 35%
    18:00 +35°C° 0 mm 5 mps 720 mmHg 37%
    19:00 +34°C° 0 mm 4 mps 720 mmHg 40%
    20:00 +33°C° 0 mm 4 mps 721 mmHg 43%
    21:00 +32°C° 0 mm 4 mps 721 mmHg 46%
    22:00 +30°C° 0 mm 4 mps 721 mmHg 55%
    23:00 +29°C° 0 mm 5 mps 721 mmHg 64%

    Tomorrow, 5 April, Sunday

    Time Temperature Precipitation Wind Pressure Humidity
    00:00 +27°C° 0 mm 5 mps 721 mmHg 73%
    01:00 +27°C° 0 mm 5 mps 721 mmHg 74%
    02:00 +27°C° 0 mm 5 mps 721 mmHg 75%
    03:00 +27°C° 0 mm 5 mps 720 mmHg 76%
    04:00 +26°C° 0 mm 5 mps 721 mmHg 78%
    05:00 +26°C° 0 mm 5 mps 721 mmHg 80%
    06:00 +26°C° 0 mm 5 mps 721 mmHg 81%
    07:00 +27°C° 0 mm 5 mps 722 mmHg 75%
    08:00 +29°C° 0 mm 6 mps 723 mmHg 68%
    09:00 +30°C° 0 mm 6 mps 723 mmHg 61%
    10:00 +33°C° 0 mm 6 mps 723 mmHg 52%
    11:00 +34°C° 0 mm 5 mps 722 mmHg 43%
    12:00 +36°C° 0 mm 5 mps 722 mmHg 33%
    13:00 +37°C° 0 mm 5 mps 721 mmHg 31%
    14:00 +37°C° 0 mm 5 mps 721 mmHg 30%
    15:00 +37°C° 0 mm 4 mps 720 mmHg 28%
    16:00 +37°C° 0 mm 4 mps 720 mmHg 28%
    17:00 +36°C° 0 mm 3 mps 720 mmHg 29%
    18:00 +36°C° 0 mm 3 mps 720 mmHg 30%
    19:00 +34°C° 0 mm 4 mps 721 mmHg 39%
    20:00 +33°C° 0 mm 6 mps 721 mmHg 48%
    21:00 +30°C° 0 mm 7 mps 722 mmHg 57%
    22:00 +29°C° 0 mm 7 mps 721 mmHg 62%
    23:00 +29°C° 0 mm 6 mps 721 mmHg 67%

    Day after tomorrow, 6 April, Monday

    Time Temperature Precipitation Wind Pressure Humidity
    00:00 +28°C° 0 mm 6 mps 721 mmHg 72%
    01:00 +27°C° 0 mm 6 mps 721 mmHg 74%
    02:00 +27°C° 0 mm 6 mps 721 mmHg 76%
    03:00 +27°C° 0 mm 5 mps 720 mmHg 77%
    04:00 +27°C° 0 mm 5 mps 721 mmHg 79%
    05:00 +26°C° 0 mm 5 mps 721 mmHg 80%
    06:00 +26°C° 0 mm 5 mps 721 mmHg 81%
    07:00 +28°C° 0 mm 5 mps 722 mmHg 73%
    08:00 +29°C° 0 mm 6 mps 723 mmHg 66%
    09:00 +32°C° 0 mm 6 mps 723 mmHg 58%
    10:00 +33°C° 0 mm 6 mps 723 mmHg 50%
    11:00 +35°C° 0 mm 6 mps 722 mmHg 43%
    12:00 +37°C° 0 mm 5 mps 722 mmHg 35%
    13:00 +37°C° 0 mm 5 mps 721 mmHg 33%
    14:00 +39°C° 0 mm 5 mps 720 mmHg 30%
    15:00 +38°C° 0 mm 4 mps 720 mmHg 27%
    16:00 +38°C° 0 mm 4 mps 720 mmHg 28%
    17:00 +37°C° 0 mm 4 mps 720 mmHg 30%
    18:00 +36°C° 0 mm 4 mps 719 mmHg 31%
    19:00 +35°C° 0 mm 5 mps 720 mmHg 37%
    20:00 +34°C° 0 mm 6 mps 721 mmHg 43%
    21:00 +33°C° 0 mm 6 mps 721 mmHg 49%
    22:00 +32°C° 0 mm 6 mps 721 mmHg 56%
    23:00 +29°C° 0 mm 6 mps 721 mmHg 64%

    7 April, Tuesday

    Time Temperature Precipitation Wind Pressure Humidity
    00:00 +28°C° 0 mm 6 mps 721 mmHg 71%
    01:00 +28°C° 0 mm 6 mps 721 mmHg 72%
    02:00 +28°C° 0 mm 6 mps 721 mmHg 72%
    03:00 +27°C° 0 mm 6 mps 720 mmHg 73%
    04:00 +27°C° 0 mm 5 mps 721 mmHg 75%
    05:00 +27°C° 0 mm 5 mps 721 mmHg 78%
    06:00 +26°C° 0 mm 5 mps 721 mmHg 81%
    07:00 +28°C° 0 mm 6 mps 722 mmHg 74%
    08:00 +29°C° 0 mm 6 mps 723 mmHg 68%
    09:00 +32°C° 0 mm 7 mps 723 mmHg 61%
    10:00 +33°C° 0 mm 6 mps 723 mmHg 53%
    11:00 +35°C° 0 mm 6 mps 722 mmHg 45%
    12:00 +37°C° 0 mm 5 mps 722 mmHg 36%
    13:00 +37°C° 0 mm 5 mps 721 mmHg 34%
    14:00 +38°C° 0 mm 4 mps 720 mmHg 31%
    15:00 +38°C° 0 mm 4 mps 719 mmHg 29%
    16:00 +37°C° 0 mm 4 mps 719 mmHg 30%
    17:00 +37°C° 0 mm 4 mps 719 mmHg 32%
    18:00 +36°C° 0 mm 4 mps 719 mmHg 33%
    19:00 +34°C° 0 mm 5 mps 720 mmHg 44%
    20:00 +32°C° 0 mm 7 mps 720 mmHg 55%
    21:00 +31°C° 0 mm 8 mps 720 mmHg 66%
    22:00 +29°C° 0 mm 8 mps 721 mmHg 69%
    23:00 +28°C° 0 mm 7 mps 721 mmHg 72%

    8 April, Wednesday

    Time Temperature Precipitation Wind Pressure Humidity
    00:00 +28°C° 0 mm 6 mps 721 mmHg 75%
    01:00 +28°C° 0 mm 6 mps 721 mmHg 75%
    02:00 +28°C° 0 mm 6 mps 720 mmHg 75%
    03:00 +28°C° 0 mm 6 mps 720 mmHg 76%
    04:00 +27°C° 0 mm 6 mps 720 mmHg 77%
    05:00 +27°C° 0 mm 6 mps 721 mmHg 78%
    06:00 +27°C° 0 mm 5 mps 721 mmHg 79%
    07:00 +28°C° 0 mm 6 mps 722 mmHg 73%
    08:00 +30°C° 0 mm 6 mps 722 mmHg 66%
    09:00 +32°C° 0 mm 7 mps 723 mmHg 60%
    10:00 +34°C° 0 mm 6 mps 723 mmHg 52%
    11:00 +35°C° 0 mm 6 mps 722 mmHg 44%
    12:00 +37°C° 0 mm 5 mps 722 mmHg 36%
    13:00 +37°C° 0 mm 5 mps 721 mmHg 33%
    14:00 +37°C° 0 mm 5 mps 720 mmHg 31%
    15:00 +39°C° 0 mm 5 mps 719 mmHg 29%
    16:00 +37°C° 0 mm 5 mps 719 mmHg 31%
    17:00 +36°C° 0 mm 5 mps 719 mmHg 34%
    18:00 +35°C° 0 mm 5 mps 719 mmHg 36%
    19:00 +34°C° 0 mm 6 mps 720 mmHg 46%
    20:00 +32°C° 0 mm 7 mps 720 mmHg 55%
    21:00 +30°C° 0 mm 7 mps 720 mmHg 65%
    22:00 +29°C° 0 mm 7 mps 721 mmHg 69%
    23:00 +28°C° 0 mm 6 mps 721 mmHg 72%

    9 April, Thursday

    Time Temperature Precipitation Wind Pressure Humidity
    00:00 +27°C° 0 mm 6 mps 721 mmHg 76%
    01:00 +27°C° 0 mm 6 mps 721 mmHg 77%
    02:00 +27°C° 0 mm 6 mps 720 mmHg 78%
    03:00 +27°C° 0 mm 5 mps 720 mmHg 79%
    04:00 +27°C° 0 mm 5 mps 720 mmHg 79%
    05:00 +27°C° 0 mm 5 mps 721 mmHg 78%
    06:00 +27°C° 0 mm 5 mps 721 mmHg 78%
    07:00 +28°C° 0 mm 5 mps 722 mmHg 72%
    08:00 +30°C° 0 mm 5 mps 722 mmHg 66%
    09:00 +32°C° 0 mm 5 mps 723 mmHg 61%
    10:00 +33°C° 0 mm 5 mps 722 mmHg 53%
    11:00 +34°C° 0 mm 4 mps 722 mmHg 46%
    12:00 +36°C° 0 mm 3 mps 721 mmHg 39%
    13:00 +36°C° 0 mm 3 mps 720 mmHg 37%
    14:00 +37°C° 0 mm 3 mps 720 mmHg 35%
    15:00 +37°C° 0 mm 4 mps 719 mmHg 34%
    16:00 +36°C° 0 mm 4 mps 719 mmHg 36%
    17:00 +36°C° 0 mm 4 mps 719 mmHg 38%
    18:00 +35°C° 0 mm 5 mps 719 mmHg 40%
    19:00 +34°C° 0 mm 5 mps 719 mmHg 46%
    20:00 +33°C° 0 mm 6 mps 720 mmHg 53%
    21:00 +32°C° 0 mm 6 mps 720 mmHg 59%
    22:00 +30°C° 0 mm 6 mps 720 mmHg 63%
    23:00 +29°C° 0 mm 5 mps 720 mmHg 67%
    Show more